Hourly Weather Russkoe

Today, 9 May, Sunday

Time Temperature Precipitation Wind Pressure Humidity
00:00 +14°C° 0.2 mm 3 mps 752 mmHg 79%
01:00 +13°C° 0 mm 4 mps 753 mmHg 80%
02:00 +10°C° 0 mm 6 mps 754 mmHg 82%
03:00 +9°C° 0 mm 7 mps 754 mmHg 84%
04:00 +8°C° 0.4 mm 7 mps 754 mmHg 84%
05:00 +8°C° 0.4 mm 6 mps 755 mmHg 85%
06:00 +7°C° 0.4 mm 6 mps 755 mmHg 85%
07:00 +6°C° 0 mm 7 mps 756 mmHg 81%
08:00 +6°C° 0 mm 7 mps 756 mmHg 76%
09:00 +7°C° 0 mm 8 mps 757 mmHg 72%
10:00 +7°C° 0 mm 8 mps 757 mmHg 68%
11:00 +9°C° 0 mm 8 mps 758 mmHg 64%
12:00 +10°C° 0 mm 8 mps 758 mmHg 59%
13:00 +11°C° 0 mm 8 mps 758 mmHg 56%
14:00 +11°C° 0 mm 8 mps 759 mmHg 53%
15:00 +11°C° 0 mm 7 mps 759 mmHg 50%
16:00 +11°C° 0 mm 7 mps 760 mmHg 51%
17:00 +11°C° 0 mm 6 mps 760 mmHg 52%
18:00 +12°C° 0 mm 5 mps 760 mmHg 54%
19:00 +11°C° 0.1 mm 4 mps 761 mmHg 58%
20:00 +8°C° 0.1 mm 4 mps 762 mmHg 61%
21:00 +8°C° 0.1 mm 3 mps 763 mmHg 65%
22:00 +8°C° 0 mm 3 mps 763 mmHg 68%
23:00 +7°C° 0 mm 3 mps 763 mmHg 70%

Tomorrow, 10 May, Monday

Time Temperature Precipitation Wind Pressure Humidity
00:00 +5°C° 0 mm 3 mps 763 mmHg 73%
01:00 +5°C° 0 mm 3 mps 763 mmHg 75%
02:00 +4°C° 0 mm 3 mps 763 mmHg 77%
03:00 +4°C° 0 mm 4 mps 763 mmHg 79%
04:00 +4°C° 0 mm 4 mps 763 mmHg 78%
05:00 +5°C° 0 mm 4 mps 763 mmHg 76%
06:00 +5°C° 0 mm 4 mps 763 mmHg 75%
07:00 +6°C° 0 mm 5 mps 763 mmHg 69%
08:00 +8°C° 0 mm 6 mps 763 mmHg 63%
09:00 +9°C° 0 mm 7 mps 762 mmHg 57%
10:00 +10°C° 0 mm 7 mps 762 mmHg 56%
11:00 +10°C° 0 mm 7 mps 761 mmHg 54%
12:00 +11°C° 0 mm 7 mps 761 mmHg 53%
13:00 +11°C° 0.2 mm 7 mps 761 mmHg 56%
14:00 +11°C° 0.2 mm 7 mps 760 mmHg 58%
15:00 +11°C° 0.2 mm 7 mps 760 mmHg 61%
16:00 +10°C° 0.3 mm 7 mps 759 mmHg 64%
17:00 +9°C° 0.3 mm 7 mps 759 mmHg 67%
18:00 +9°C° 0.3 mm 7 mps 759 mmHg 70%
19:00 +7°C° 0.8 mm 8 mps 758 mmHg 74%
20:00 +7°C° 0.8 mm 9 mps 757 mmHg 78%
21:00 +7°C° 0.8 mm 9 mps 756 mmHg 82%
22:00 +6°C° 2.2 mm 9 mps 755 mmHg 85%
23:00 +6°C° 2.2 mm 9 mps 753 mmHg 88%

Day after tomorrow, 11 May, Tuesday

Time Temperature Precipitation Wind Pressure Humidity
00:00 +6°C° 2.2 mm 9 mps 752 mmHg 91%
01:00 +6°C° 0.9 mm 9 mps 752 mmHg 92%
02:00 +6°C° 0.9 mm 8 mps 752 mmHg 92%
03:00 +6°C° 0.9 mm 8 mps 751 mmHg 93%
04:00 +6°C° 0 mm 7 mps 752 mmHg 91%
05:00 +5°C° 0 mm 7 mps 752 mmHg 89%
06:00 +5°C° 0 mm 7 mps 753 mmHg 88%
07:00 +5°C° 0.1 mm 7 mps 753 mmHg 87%
08:00 +5°C° 0.1 mm 7 mps 754 mmHg 86%
09:00 +5°C° 0.1 mm 7 mps 754 mmHg 86%
10:00 +5°C° 0.1 mm 6 mps 754 mmHg 86%
11:00 +7°C° 0.1 mm 5 mps 754 mmHg 86%
12:00 +7°C° 0.1 mm 5 mps 755 mmHg 86%
13:00 +7°C° 0.2 mm 4 mps 755 mmHg 86%
14:00 +8°C° 0.2 mm 3 mps 755 mmHg 85%
15:00 +9°C° 0.2 mm 1 mps 756 mmHg 85%
16:00 +8°C° 0.2 mm 2 mps 756 mmHg 86%
17:00 +8°C° 0.2 mm 2 mps 757 mmHg 88%
18:00 +8°C° 0.2 mm 3 mps 757 mmHg 89%
19:00 +8°C° 0.1 mm 3 mps 758 mmHg 91%
20:00 +6°C° 0.1 mm 4 mps 758 mmHg 93%
21:00 +6°C° 0.1 mm 4 mps 758 mmHg 94%
22:00 +6°C° 0.2 mm 5 mps 758 mmHg 94%
23:00 +7°C° 0.2 mm 6 mps 759 mmHg 94%

12 May, Wednesday

Time Temperature Precipitation Wind Pressure Humidity
00:00 +6°C° 0.2 mm 7 mps 759 mmHg 93%
01:00 +7°C° 0.5 mm 6 mps 759 mmHg 93%
02:00 +7°C° 0.5 mm 6 mps 759 mmHg 93%
03:00 +7°C° 0.5 mm 6 mps 759 mmHg 93%
04:00 +7°C° 0.5 mm 6 mps 759 mmHg 93%
05:00 +7°C° 0.5 mm 6 mps 760 mmHg 92%
06:00 +7°C° 0.5 mm 6 mps 760 mmHg 91%
07:00 +8°C° 0.3 mm 6 mps 760 mmHg 88%
08:00 +8°C° 0.3 mm 6 mps 760 mmHg 85%
09:00 +9°C° 0.3 mm 5 mps 760 mmHg 83%
10:00 +10°C° 0 mm 5 mps 760 mmHg 76%
11:00 +13°C° 0 mm 5 mps 760 mmHg 70%
12:00 +14°C° 0 mm 5 mps 760 mmHg 63%
13:00 +15°C° 0 mm 5 mps 760 mmHg 60%
14:00 +16°C° 0 mm 5 mps 760 mmHg 57%
15:00 +17°C° 0 mm 5 mps 760 mmHg 54%
16:00 +17°C° 0 mm 5 mps 760 mmHg 58%
17:00 +18°C° 0 mm 4 mps 759 mmHg 62%
18:00 +18°C° 0 mm 4 mps 759 mmHg 67%
19:00 +15°C° 0 mm 4 mps 759 mmHg 74%
20:00 +14°C° 0 mm 3 mps 759 mmHg 81%
21:00 +12°C° 0 mm 3 mps 759 mmHg 88%
22:00 +12°C° 0 mm 3 mps 759 mmHg 88%
23:00 +12°C° 0 mm 3 mps 759 mmHg 88%

13 May, Thursday

Time Temperature Precipitation Wind Pressure Humidity
00:00 +11°C° 0 mm 3 mps 759 mmHg 89%
01:00 +11°C° 0 mm 3 mps 759 mmHg 88%
02:00 +11°C° 0 mm 3 mps 759 mmHg 88%
03:00 +10°C° 0 mm 3 mps 759 mmHg 87%
04:00 +11°C° 0 mm 3 mps 759 mmHg 87%
05:00 +11°C° 0 mm 3 mps 759 mmHg 86%
06:00 +11°C° 0 mm 3 mps 759 mmHg 85%
07:00 +13°C° 0 mm 4 mps 759 mmHg 77%
08:00 +15°C° 0 mm 5 mps 759 mmHg 69%
09:00 +17°C° 0 mm 6 mps 759 mmHg 61%
10:00 +20°C° 0 mm 6 mps 759 mmHg 59%
11:00 +21°C° 0 mm 6 mps 759 mmHg 57%
12:00 +22°C° 0 mm 7 mps 758 mmHg 55%
13:00 +23°C° 0 mm 7 mps 758 mmHg 55%
14:00 +23°C° 0 mm 7 mps 758 mmHg 56%
15:00 +24°C° 0 mm 7 mps 758 mmHg 56%
16:00 +23°C° 0 mm 6 mps 758 mmHg 60%
17:00 +23°C° 0 mm 6 mps 757 mmHg 64%
18:00 +22°C° 0 mm 5 mps 757 mmHg 68%
19:00 +21°C° 0 mm 5 mps 757 mmHg 75%
20:00 +19°C° 0 mm 4 mps 758 mmHg 82%
21:00 +17°C° 0 mm 3 mps 758 mmHg 88%
22:00 +17°C° 0 mm 3 mps 757 mmHg 89%
23:00 +17°C° 0 mm 3 mps 757 mmHg 90%

14 May, Friday

Time Temperature Precipitation Wind Pressure Humidity
00:00 +16°C° 0 mm 3 mps 757 mmHg 90%
01:00 +16°C° 0 mm 3 mps 757 mmHg 91%
02:00 +16°C° 0 mm 3 mps 757 mmHg 91%
03:00 +16°C° 0 mm 3 mps 757 mmHg 91%
04:00 +15°C° 0 mm 4 mps 757 mmHg 89%
05:00 +15°C° 0 mm 4 mps 757 mmHg 87%
06:00 +15°C° 0 mm 4 mps 757 mmHg 85%
07:00 +17°C° 0 mm 5 mps 757 mmHg 78%
08:00 +20°C° 0 mm 5 mps 757 mmHg 71%
09:00 +22°C° 0 mm 6 mps 757 mmHg 64%
10:00 +24°C° 0 mm 6 mps 757 mmHg 60%
11:00 +26°C° 0 mm 6 mps 757 mmHg 56%
12:00 +27°C° 0 mm 6 mps 757 mmHg 52%
13:00 +28°C° 0 mm 6 mps 756 mmHg 52%
14:00 +28°C° 0 mm 6 mps 756 mmHg 52%
15:00 +29°C° 0 mm 6 mps 756 mmHg 52%
16:00 +28°C° 0 mm 5 mps 756 mmHg 57%
17:00 +27°C° 0 mm 5 mps 756 mmHg 62%
18:00 +27°C° 0 mm 5 mps 756 mmHg 67%
19:00 +25°C° 0 mm 4 mps 756 mmHg 74%
20:00 +22°C° 0 mm 3 mps 756 mmHg 81%
21:00 +20°C° 0 mm 2 mps 756 mmHg 88%
22:00 +20°C° 0 mm 2 mps 756 mmHg 88%
23:00 +19°C° 0 mm 2 mps 756 mmHg 88%
Show more